IRIDIUM 33 DEB

Satellite information

Favourite Embed

Satellite Type and Status

DEBRISIN ORBIT

Key statistics

Satellite IRIDIUM 33 DEB at a glance.

Uptime

10263

Days in orbit

Revolutions

≈ 14.4

Per day

Orbit

LEO

Low Earth Orbit

Inclination

86.2

Latest

Satellite identification and parameters

Extended collection of information and parameters for IRIDIUM 33 DEB.

Object identification

Identified? True

Debris? True

Object name: IRIDIUM 33 DEB

International designator: 1997-051DY

Object number (NORAD): 34145

Object ID (CCSDS): 34145

Country: UNITED STATES OF AMERICA (US)

Current information (Y/N): Y

RCS size: SMALL

Orbital parameters

Period: 99.876 minutes

Inclination: 86.2173 deg

SMA: 7130.747 km

Apoapsis: 789.508 km

Periapsis: 715.716 km

RAAN: 356.4875 deg

Eccentricy: 0.00517422

Argument of periapsis: 271.1791 deg

Mean anomaly: 88.3481 deg

Mean motion: 14.4178411 rev/day

Mean motion (dot): 0.00006331 rev/day2

B* drag term: 0.0019023738 1/REarth

Two-line elements (TLE)

Creation date: Oct. 20, 2025, 2:10 a.m.

Reference frame: TEME

Reference center: EARTH

Epoch: Oct. 19, 2025, 9:36 p.m. UTC

TLE line 0: 0 IRIDIUM 33 DEB

TLE line 1: 1 34145U 97051DY 25292.90026882 .00006331 00000-0 19024-2 0 9995

TLE line 2: 2 34145 86.2173 356.4875 0051742 271.1791 88.3481 14.41784110868624

Live tracking on map

Real-time ground track for satellite IRIDIUM 33 DEB.

In-orbit conjunctions

A list of the most updated potential collisions computed for object IRIDIUM 33 DEB.

Target Orbit TCA Probability of collision Miss distance Type
CZ-6A DEB LEO 2025-01-24 23:44:58 0.0001602514 713.0 (m) DEBRIS
CZ-6A DEB LEO 2024-10-22 11:22:09 0.00206175 93.0 (m) DEBRIS
CZ-6A DEB LEO 2024-10-20 18:27:18 0.0001282968 730.0 (m) DEBRIS
CZ-6A DEB LEO 2024-10-10 10:58:27 0.00362287 74.0 (m) DEBRIS
COSMOS 2150 LEO 2024-08-21 23:50:41 0.0001999165 890.0 (m) PAYLOAD

Associated space launch

Iridium provides global mobile telecommunications services using a constellation of 66 low earth orbit satellites in a 86.4° inclined orbit. Although 77 satellites were originally envisioned for the system and spawned the name based on the 77th element in the periodic table, the system has been scaled back. Motorola's Satellite Communications Group designed and manufactured the Iridium satellites with Lockheed Martin providing the LM-700A spacecraft buses.

IRIDIUM 33 DEB was lifted into orbit during the mission ‘Proton-K/17S40 | Iridium 27 to 33’, on board a Proton-K/17S40 space rocket.

The launch took place on Sept. 14, 1997, 1:36 a.m. from 81/23 (81L).

For more information about the launch, click the button.

Launch to space Proton-K/17S40 | Iridium 27 to 33
Proton-K/17S40 | Iridium 27 to 33

Agency: N/A

Status: Launch Successful

Launch date: Sept. 14, 1997, 1:36 a.m. UTC

Rocket: Proton-K/17S40

Launch pad: 81/23 (81L)

Location: Baikonur Cosmodrome, Republic of Kazakhstan

...

Latest news about this satellite

There are no fresh news available about this satellite. Check back as we update our databases every day.


Newsletter sign-up

Weekly statistics, charts and insights to help you stay on top of the space industry.